Location: Unspecified
(0.0000°N, 0.0000°E)
Time: 18:03:10
(UTC+00:00)

Vanguard 2 - Pass Details

Date: 16 April 2026
Orbit: 553 x 2895 km, 32.9° (Epoch: 17 May)

Event Time Altitude Azimuth Distance (km) Brightness Sun altitude
Exits shadow 05:05:21 - 221° (SW) 6,183 11.7 -13.4°
Reaches altitude 10° 05:10:47 10° 211° (SSW) 4,834 11.2 -12.1°
Maximum altitude 05:20:54 27° 159° (SSE) 2,842 10.5 -9.6°
Drops below altitude 10° 05:27:51 10° 104° (ESE) 3,253 11.9 -7.9°
Sets 05:30:43 0° 91° (E) 3,913 13.2 -7.2°
